Notices

What's New in latest Release from April 7th, 2021:

- Updated Glossary, including Speed of Maximum Gust, and Total Hourly Precipitation

- Updated national and regional climate services offices contacts and prices information

- Addition of station inventory lists for 1981-2010, 1971-2000, and 1961-1990 Normals.

If you haven't already, please take our survey and provide feedback about our website: https://eccc.sondage-survey.ca/f/LanguageSelection.aspx?s=442ca660-fcf1-47c0-95a9-59707d6fd709

Hourly Data Report for November 02, 2004

SHERBROOKE A
QUEBEC

45°26'00.000" N
71°41'00.000" W
241.40 m
7028124
71610
YSC

Download Data

Hourly Data (November 2004)
Hourly Data Report for November 2, 2004
TIME
LST
Temp Definition
°C
Dew Point Definition
°C
Rel Hum Definition
%
Precip. Amount Definition
mm

Wind Dir Definition
10's deg

Wind Spd Definition
km/h
Visibility Definition
km
Stn Press Definition
kPa
Hmdx Definition


Wind Chill Definition


Weather Definition


00:00 4.0 2.9 93     0 15.0 99.37      
01:00 4.1 2.9 92     0 15.0 99.33      
02:00 3.9 3.0 94     0 15.0 99.33      
03:00 4.1 2.9 92     0 15.0 99.34      
04:00 3.9 2.9 93   8 4 15.0 99.33      
05:00 3.8 2.7 93   5 4 15.0 99.38      
06:00 3.5 2.5 93   9 7 15.0 99.29      
07:00 3.5 2.1 91   9 6 15.0 99.30      
08:00 4.1 2.4 89   10 7 24.1 99.25     Mostly Cloudy
09:00 5.5 2.9 83   11 7 24.1 99.18     Mostly Cloudy
10:00 6.7 3.1 78   14 13 24.1 99.07     Mostly Cloudy
11:00 7.1 3.2 76   16 11 24.1 98.98     Cloudy
12:00 7.7 2.9 72   16 13 24.1 98.79     Cloudy
13:00 7.3 3.8 78   16 9 19.3 98.68     Rain
14:00 6.4 5.1 91   12 11 9.7 98.56     Rain,Fog
15:00 4.8 3.4 91   14 15 8.0 98.57     Rain,Fog
16:00 4.2 3.0 92   12 13 8.0 98.47     Rain,Fog
17:00 4.0 2.8 92   13 15 9.7 98.33     Rain,Fog
18:00 3.9 2.9 93   11 6 6.4 98.32     Rain
19:00 4.2 3.5 95   13 4 8.0 98.21     Drizzle
20:00 4.7 3.9 95   14 6 15.0 98.10     Rain
21:00 5.0 4.4 96   16 4 4.8 98.01     Rain
22:00 5.3 4.7 96     0 15.0 97.90     Rain
23:00 5.5 4.9 96   25 4 5.6 97.89      

Notes on Data Quality.

Legend

  • E = Estimated
  • M = Missing
  • NA = Not Available*
  • [empty] = Indicates an unobserved value
Date modified: